Zurück zum Katalog

NIMBUS 2 DEB

AktivLEO
NORAD 28208·DEBRIS·🇺🇸 United States

Gestartet May 15, 1966 von Vandenberg Space Force Base

Loading…

Nächste Überflüge (nächste 24 Stunden)

TLE

AktuellSource: Space-Track

Epoche: Sep 14, 2026, 13:40 UTC

1 28208U 66040W   26257.56969142  .00001392  00000-0  17288-2 0  9993
2 28208 100.3166 299.5614 0040519  21.2492 137.7468 13.66516847267282

Verfolge NIMBUS 2 DEB in Echtzeit mit AllMySat

Download on the App Store